TimeEDT,TemperatureF,Dew PointF,Humidity,Sea Level PressureIn,VisibilityMPH,Wind Direction,Wind SpeedMPH,Gust SpeedMPH,PrecipitationIn,Events,Conditions,WindDirDegrees,DateUTC
12:30 AM,41.0,30.2,65,30.06,10.0,South,9.2,-,N/A,,Clear,180,2012-10-09 04:30:00
1:10 AM,42.8,30.2,61,30.05,10.0,South,9.2,-,N/A,,Clear,180,2012-10-09 05:10:00
1:31 AM,42.8,30.2,61,30.05,10.0,South,9.2,-,N/A,,Clear,190,2012-10-09 05:31:00
1:51 AM,42.8,30.2,61,30.06,10.0,South,9.2,-,N/A,,Clear,190,2012-10-09 05:51:00
2:11 AM,42.8,30.2,61,30.05,10.0,South,6.9,-,N/A,,Clear,180,2012-10-09 06:11:00
2:51 AM,42.8,30.2,61,30.05,10.0,South,8.1,-,N/A,,Clear,170,2012-10-09 06:51:00
3:11 AM,42.8,30.2,61,30.04,10.0,South,9.2,-,N/A,,Clear,180,2012-10-09 07:11:00
3:51 AM,44.6,30.2,57,30.03,10.0,SSW,13.8,-,N/A,,Clear,200,2012-10-09 07:51:00
4:11 AM,44.6,30.2,57,30.02,10.0,South,10.4,-,N/A,,Clear,190,2012-10-09 08:11:00
4:32 AM,44.6,30.2,57,30.03,10.0,SSW,9.2,-,N/A,,Clear,200,2012-10-09 08:32:00
4:52 AM,42.8,30.2,61,30.03,10.0,SSW,10.4,16.1,N/A,,Clear,200,2012-10-09 08:52:00
5:12 AM,42.8,30.2,61,30.02,10.0,South,10.4,-,N/A,,Clear,190,2012-10-09 09:12:00
5:32 AM,42.8,30.2,61,30.02,10.0,South,9.2,-,N/A,,Clear,190,2012-10-09 09:32:00
5:52 AM,42.8,32.0,66,30.02,10.0,South,10.4,-,N/A,,Clear,190,2012-10-09 09:52:00
6:12 AM,42.8,32.0,66,30.01,10.0,South,10.4,-,N/A,,Clear,190,2012-10-09 10:12:00
6:32 AM,44.6,32.0,61,30.01,10.0,South,11.5,16.1,N/A,,Clear,190,2012-10-09 10:32:00
6:52 AM,44.6,32.0,61,30.02,10.0,South,10.4,-,N/A,,Clear,190,2012-10-09 10:52:00
7:13 AM,44.6,32.0,61,30.01,10.0,SSW,12.7,-,N/A,,Clear,200,2012-10-09 11:13:00
7:33 AM,44.6,32.0,61,30.01,10.0,South,13.8,19.6,N/A,,Clear,190,2012-10-09 11:33:00
7:53 AM,44.6,32.0,61,30.00,10.0,South,15.0,-,N/A,,Clear,190,2012-10-09 11:53:00
8:13 AM,44.6,32.0,61,30.00,10.0,South,18.4,21.9,N/A,,Clear,190,2012-10-09 12:13:00
8:33 AM,44.6,32.0,61,30.00,10.0,South,17.3,20.7,N/A,,Clear,190,2012-10-09 12:33:00
8:53 AM,46.4,32.0,57,30.00,10.0,SSW,15.0,20.7,N/A,,Clear,200,2012-10-09 12:53:00
9:13 AM,46.4,32.0,57,30.01,10.0,SSW,16.1,24.2,N/A,,Clear,200,2012-10-09 13:13:00
9:33 AM,48.2,32.0,54,30.00,10.0,SSW,17.3,21.9,N/A,,Clear,200,2012-10-09 13:33:00
9:53 AM,50.0,32.0,50,29.99,10.0,SSW,15.0,21.9,N/A,,Clear,200,2012-10-09 13:53:00
10:13 AM,51.8,32.0,47,29.99,10.0,SSW,19.6,24.2,N/A,,Clear,200,2012-10-09 14:13:00
10:34 AM,51.8,33.8,50,29.99,10.0,SSW,18.4,26.5,N/A,,Clear,200,2012-10-09 14:34:00
10:54 AM,53.6,33.8,47,29.98,10.0,SSW,15.0,23.0,N/A,,Clear,200,2012-10-09 14:54:00
11:14 AM,55.4,33.8,44,29.97,10.0,SSW,18.4,21.9,N/A,,Clear,210,2012-10-09 15:14:00
11:34 AM,57.2,33.8,41,29.96,10.0,SSW,20.7,28.8,N/A,,Clear,200,2012-10-09 15:34:00
11:54 AM,59.0,33.8,39,29.95,10.0,SSW,17.3,27.6,N/A,,Clear,200,2012-10-09 15:54:00
12:14 PM,59.0,33.8,39,29.95,10.0,SSW,18.4,26.5,N/A,,Clear,200,2012-10-09 16:14:00
12:34 PM,60.8,33.8,36,29.94,10.0,SSW,19.6,29.9,N/A,,Clear,210,2012-10-09 16:34:00
12:54 PM,60.8,33.8,36,29.93,10.0,SSW,18.4,32.2,N/A,,Scattered Clouds,210,2012-10-09 16:54:00
1:09 PM,60.8,33.8,36,29.92,10.0,SSW,23.0,27.6,N/A,,Scattered Clouds,200,2012-10-09 17:09:00
1:30 PM,62.6,33.8,34,29.91,10.0,SSW,25.3,32.2,N/A,,Scattered Clouds,210,2012-10-09 17:30:00
1:50 PM,60.8,33.8,36,29.90,10.0,SSW,20.7,28.8,N/A,,Mostly Cloudy,210,2012-10-09 17:50:00
2:10 PM,62.6,33.8,34,29.89,10.0,SSW,19.6,27.6,N/A,,Mostly Cloudy,210,2012-10-09 18:10:00
2:30 PM,62.6,33.8,34,29.88,10.0,SSW,23.0,32.2,N/A,,Scattered Clouds,200,2012-10-09 18:30:00
2:50 PM,62.6,33.8,34,29.87,10.0,South,17.3,25.3,N/A,,Scattered Clouds,190,2012-10-09 18:50:00
3:10 PM,62.6,33.8,34,29.86,10.0,South,20.7,27.6,N/A,,Clear,190,2012-10-09 19:10:00
3:30 PM,62.6,33.8,34,29.85,10.0,South,17.3,28.8,N/A,,Clear,190,2012-10-09 19:30:00
3:50 PM,62.6,33.8,34,29.85,10.0,South,21.9,28.8,N/A,,Clear,190,2012-10-09 19:50:00
4:10 PM,62.6,33.8,34,29.84,10.0,SSW,18.4,24.2,N/A,,Clear,200,2012-10-09 20:10:00
4:30 PM,62.6,33.8,34,29.84,10.0,SSW,19.6,26.5,N/A,,Clear,200,2012-10-09 20:30:00
4:51 PM,62.6,33.8,34,29.84,10.0,South,18.4,26.5,N/A,,Clear,190,2012-10-09 20:51:00
5:11 PM,62.6,33.8,34,29.84,10.0,SSW,19.6,29.9,N/A,,Clear,200,2012-10-09 21:11:00
5:31 PM,62.6,33.8,34,29.84,10.0,SSW,20.7,27.6,N/A,,Clear,200,2012-10-09 21:31:00
5:51 PM,60.8,33.8,36,29.84,10.0,SSW,18.4,26.5,N/A,,Clear,210,2012-10-09 21:51:00
6:11 PM,60.8,33.8,36,29.83,10.0,SSW,18.4,26.5,N/A,,Clear,200,2012-10-09 22:11:00
6:31 PM,60.8,33.8,36,29.84,10.0,SSW,18.4,21.9,N/A,,Clear,200,2012-10-09 22:31:00
6:51 PM,59.0,33.8,39,29.83,10.0,SSW,12.7,24.2,N/A,,Clear,200,2012-10-09 22:51:00
7:11 PM,57.2,35.6,44,29.82,10.0,South,10.4,16.1,N/A,,Clear,190,2012-10-09 23:11:00
7:32 PM,55.4,35.6,47,29.82,10.0,South,8.1,-,N/A,,Clear,180,2012-10-09 23:32:00
7:52 PM,53.6,35.6,51,29.82,10.0,South,9.2,-,N/A,,Clear,180,2012-10-09 23:52:00
8:12 PM,55.4,35.6,47,29.82,10.0,South,11.5,-,N/A,,Clear,180,2012-10-10 00:12:00
8:32 PM,55.4,35.6,47,29.82,10.0,South,11.5,-,N/A,,Clear,190,2012-10-10 00:32:00
8:52 PM,55.4,35.6,47,29.82,10.0,South,12.7,17.3,N/A,,Clear,190,2012-10-10 00:52:00
9:12 PM,55.4,35.6,47,29.81,10.0,South,12.7,-,N/A,,Clear,190,2012-10-10 01:12:00
9:32 PM,55.4,35.6,47,29.81,10.0,South,15.0,23.0,N/A,,Clear,190,2012-10-10 01:32:00
9:52 PM,55.4,35.6,47,29.80,10.0,South,13.8,23.0,N/A,,Clear,190,2012-10-10 01:52:00
10:12 PM,55.4,35.6,47,29.78,10.0,South,13.8,20.7,N/A,,Scattered Clouds,180,2012-10-10 02:12:00
10:33 PM,55.4,35.6,47,29.77,10.0,South,15.0,20.7,N/A,,Clear,180,2012-10-10 02:33:00
10:53 PM,55.4,35.6,47,29.77,10.0,South,15.0,20.7,N/A,,Clear,190,2012-10-10 02:53:00
11:13 PM,55.4,35.6,47,29.76,10.0,South,15.0,21.9,N/A,,Scattered Clouds,190,2012-10-10 03:13:00
11:33 PM,55.4,35.6,47,29.75,10.0,South,16.1,23.0,N/A,,Scattered Clouds,190,2012-10-10 03:33:00
11:53 PM,55.4,35.6,47,29.74,10.0,South,17.3,21.9,N/A,,Mostly Cloudy,190,2012-10-10 03:53:00